Other Public Products
Issued by NWS Grand Forks, ND

Home | Current Version | Previous Version | Text Only | Print | Product List | Glossary On
Versions: 1 2 3 4 5 6 7 8 9 10 11 12 13 14 15 16 17 18 19 20 21 22 23 24 25 26 27 28 29 30 31 32 33 34 35 36 37 38 39 40 41 42 43 44 45 46 47 48 49 50
000
FPUS83 KFGF 302231
OPUFGF
PRAIRIE TO PINES WEATHER ROUNDUP
NATIONAL WEATHER SERVICE EASTERN NORTH DAKOTA/GRAND FORKS ND
500 PM CDT SAT AUG 30 2014

 **SATELLITE DATA USED TO AUGMENT SKY COVER AT AUTOMATED STATIONS**
 *****  WEATHER ACROSS EASTERN NORTH DAKOTA  *****

CITY           SKY/WX    TMP DP  RH WIND       PRES   REMARKS
GRAND FORKS    MOSUNNY   73  51  46 E8        29.83F
GRAND FORKS AF SUNNY     72  50  46 SE6       29.84F
GRAND CITY NWS   N/A     32 N/A N/A S6          N/A
BUXTON           N/A     74  54  49 E3          N/A
DEVILS LAKE    SUNNY     72  52  49 S12       29.80F
FARGO          PTSUNNY   71  59  65 SE9       29.84F
WAHPETON ARPT  CLOUDY    64  57  77 S7        29.85F
$$

 *****  WEATHER ACROSS CENTRAL AND WESTERN NORTH DAKOTA  *****

CITY           SKY/WX    TMP DP  RH WIND       PRES   REMARKS
JAMESTOWN      CLOUDY    72  56  57 SE9       29.82F
BISMARCK       SUNNY     76  55  48 SE14G22   29.77F
MINOT          MOSUNNY   74  51  44 SE14      29.74F
MINOT AFB      MOSUNNY   72  52  50 SE13G21   29.74F
GARRISON         N/A     74  56  53 S12       29.75F
WILLISTON      LGT RAIN  71  60  68 S5        29.71S
DICKINSON      PTSUNNY   74  58  57 SE17G26   29.71F
HETTINGER      MOSUNNY   77  58  51 SE15G21   29.75S
$$

 *****  OTHER OBSERVATIONS NORTHEAST NORTH DAKOTA  *****

CITY           SKY/WX    TMP DP  RH WIND       PRES   REMARKS
WALHALLA         N/A     70  46  43 S8        29.83S
LANGDON        FAIR      72  43  35 SE9       29.83F
CAVALIER       FAIR      72  48  43 S7        29.82F
GRAFTON        FAIR      72  45  37 SE5       29.82F
CANDO          FAIR      68  52  56 SE10      29.81F
FORT TOTTEN    NOT AVBL
ROLLA          FAIR      66  48  52 S13       29.81F
RUGBY          FAIR      70  50  49 S15       29.78F
 ***** THE ABOVE OBSERVATIONS ARE NON NWS ARE NOT QUALITY
        CONTROLLED AND MAY MIS-REPORT RAIN FOR SNOW...
$$

 *****  OTHER OBSERVATIONS SOUTHEAST NORTH DAKOTA *****

CITY           SKY/WX    TMP DP  RH WIND       PRES   REMARKS
COOPERSTOWN    NOT AVBL
VALLEY CITY    MOCLDY    72  55  56 E8        29.83F
OAKES            N/A     72  59  64 E3        29.83F
GWINNER        MOCLDY    72  59  64 CALM      29.85F
BUFFALO          N/A     71  50  46 CALM        N/A
WYNDMERE       NOT AVBL
 ***** THE ABOVE OBSERVATIONS ARE NON NWS ARE NOT QUALITY
       CONTROLLED AND MAY MIS-REPORT RAIN FOR SNOW...
$$

  *****  WEATHER ACROSS NORTHERN MINNESOTA  *****

CITY           SKY/WX    TMP DP  RH WIND       PRES   REMARKS
FLAG ISLAND    SUNNY     66  48  52 S6        29.87F
WARROAD        SUNNY     66  55  68 NE8       29.88F
ROSEAU         SUNNY     70  55  60 E9        29.86F
HALLOCK        SUNNY     72  48  43 SE9       29.82F
THF RVR FALLS  SUNNY     72  54  53 SE8       29.84F
HALSTAD          N/A     72  54  53 SE9         N/A
FOSSTON        PTSUNNY   72  57  60 E7        29.86F
BAUDETTE       SUNNY     70  55  59 N6        29.87F
WASKISH        MOSUNNY   70  57  64 CALM      29.87F
CROOKSTON      SUNNY     73  54  49 E7        29.84F
$$
  *****  WEATHER ACROSS CENTRAL AND WEST MINNESOTA  *****

CITY           SKY/WX    TMP DP  RH WIND       PRES   REMARKS
BEMIDJI        CLOUDY    65  57  76 NE3       29.88S
PARK RAPIDS    CLOUDY    63  58  83 E5        29.88S
WADENA         CLOUDY    64  61  88 E3        29.87S
DETROIT LAKES  CLOUDY    64  59  82 S3        29.88F
MOORHEAD       CLOUDY    68  63  83 CALM      29.85F
FERGUS FALLS   CLOUDY    66  61  82 S3        29.85F
ELBOW LAKE     CLOUDY    65  60  86 W3        29.86F
MORRIS MN      SUNNY     66  61  82 CALM      29.86S
STAPLES        CLOUDY    64  61  88 CALM      29.87F
WHEATON        CLOUDY    63  57  82 CALM      29.87F
$$
  *****  WEATHER ELSEWHERE ACROSS MINNESOTA  *****

CITY           SKY/WX    TMP DP  RH WIND       PRES   REMARKS
DULUTH         CLOUDY    64  59  83 E7        29.88F
INTRNTL FALLS  MOSUNNY   71  50  47 N8        29.88S
ELY            CLOUDY    63  55  77 CALM      29.90S
CLOQUET        CLOUDY    66  61  82 E5        29.88S
BRAINERD       CLOUDY    68  62  81 NW6       29.87S
HIBBING        CLOUDY    65  57  75 E5        29.89S
ALEXANDRIA     CLOUDY    68  61  78 VRB3      29.87F
SAINT CLOUD    CLOUDY    72  65  78 CALM      29.85S
MINNEAPOLIS    PTSUNNY   76  62  62 NE8       29.85S
$$

  *****  WEATHER ACROSS SOUTH DAKOTA  *****

CITY           SKY/WX    TMP DP  RH WIND       PRES   REMARKS
SIOUX FALLS    MOSUNNY   70  60  70 SW5       29.88F
BROOKINGS      NOT AVBL
WATERTOWN      MOSUNNY   69  57  65 S7        29.86F
HURON          SUNNY     71  58  63 SE9       29.83F
SISSETON         N/A     70  61  73 E6        29.83F
ABERDEEN       SUNNY     70  58  65 SE5       29.83F
MITCHELL       SUNNY     72  61  68 SE10      29.85F
PIERRE         SUNNY     79  60  52 E16       29.75F
MOBRIDGE       SUNNY     76  59  55 SE17      29.75F
RAPID CITY     SUNNY     87  52  29 S17G26    29.69F
$$

  *****  SOME WEATHER IN NEARBY STATES *****

CITY           SKY/WX    TMP DP  RH WIND       PRES   REMARKS
GLASGOW MT     PTSUNNY   68  57  68 S7        29.71F
GREAT FALLS MT LGT RAIN  69  47  45 S3        29.76F
CHEYENNE WY    MOSUNNY   81  41  24 S17G26    29.96F
SCOTTSBLUFF NE MOSUNNY   92  45  19 SW17      29.78F
OMAHA NE       MOSUNNY   81  64  56 SE8       29.88F
DES MOINES IA  MOSUNNY   81  68  64 W5        29.86F
DAVENPORT IA   MOSUNNY   79  67  66 NW8       29.87F
CHICAGO IL     MOSUNNY   82  64  54 W17G24    29.83S
EAU CLAIRE WI  CLOUDY    68  63  84 N7        29.86R
LA CROSSE WI   PTSUNNY   78  66  66 N10       29.83S
$$

  *****  SOME NATIONAL WEATHER *****

CITY           SKY/WX    TMP DP  RH WIND       PRES   REMARKS
LA GUARDIA NY  PTSUNNY   75  64  68 S13G22    30.16F
RALEIGH NC     MOSUNNY   87  70  56 SE8       30.13F HX  92
ATLANTA GA     PTSUNNY   82  72  71 CALM      30.09R
NEW ORLEANS LA CLOUDY    80  74  81 S5        30.01F
OKLAHOMA CITY  MOSUNNY   96  52  22 CALM      29.88F HX  93
ALBUQUERQUE NM PTSUNNY   89  39  17 S6        30.07F
SALT LAKE CITY PTSUNNY   82  40  22 E12       29.87F
LOS ANGELES CA MOSUNNY   76  64  66 W9        29.79F
BOISE ID       PTSUNNY   78  39  24 NW10      29.86F
SEATTLE WA     LGT RAIN  64  61  88 N5        29.90F FOG
$$

*** WEATHER ACROSS MANITOBA...SASKATCHEWAN AND ONTARIO ***
                ***ONTARIO***

CITY           SKY/WX    TMP DP  RH WIND       PRES   REMARKS
GERALDTON      PTSUNNY   64  52  63 N6        29.87S
THUNDER BAY    CLOUDY    64  57  77 VRB2      29.88R
SIOUX LOOKOUT  MOSUNNY   64  50  59 VRB3      29.91F
TORONTO        PTSUNNY   84  64  51 SW22      29.91S
BIG TROUT LK   SUNNY     61  41  48 NW6       29.91F
PICKLE LAKE    MOSUNNY   63  41  45 S2        29.93S
DRYDEN         PTSUNNY   64  50  59 SE3       29.90F
KENORA         MOSUNNY   68  48  49 SE5       29.90F
$$
                *** MANITOBA***

CITY           SKY/WX    TMP DP  RH WIND       PRES   REMARKS
BRANDON        CLOUDY    72  46  40 S16       29.79F
DAUPHIN        SUNNY     68  50  52 S12       29.74F
ISLAND LAKE    MOSUNNY   64  45  48 E5        29.88F
PILOT MOUND      N/A     72  43  35 S12         N/A
THE PAS        LGT RAIN  59  55  88 SE15      29.68F
THOMPSON       PTSUNNY   64  48  55 S9        29.79S
WINNIPEG       PTSUNNY   72  46  40 S10       29.84F
LYNN LAKE      CLOUDY    59  48  67 MISG      29.70F
CHURCHILL      MOSUNNY   57  39  51 N5        29.81F
GILLAM         MOSUNNY   63  43  48 NW5       29.83F
$$
                ***SASKATCHEWAN***

CITY           SKY/WX    TMP DP  RH WIND       PRES   REMARKS
ESTEVAN        CLOUDY    68  57  68 S8        29.72F
KINDERSLEY     PTSUNNY   68  45  42 W12G21    29.67F
LLOYDMINSTER   PTSUNNY   66  43  42 NW13G20   29.64S
PRINCE ALBERT  PTSUNNY   64  57  77 NW10      29.57S
REGINA         LGT RAIN  64  59  82 S14       29.67R
YORKTON        CLOUDY    64  54  68 SE12G18   29.69F



USA.gov is the U.S. government's official web portal to all federal, state and local government web resources and services.